Year,Month,Day,Hour,Minute,Value (Times are PST for windgust in km/hr)
2015,08,27,00,01,3.20
2015,08,27,00,02,3.20
2015,08,27,00,03,3.20
2015,08,27,00,04,1.60
2015,08,27,00,09,1.60
2015,08,27,00,10,3.20
2015,08,27,00,11,3.20
2015,08,27,00,12,1.60
2015,08,27,00,13,1.60
2015,08,27,00,14,1.60
2015,08,27,00,15,3.20
2015,08,27,00,16,3.20
2015,08,27,00,17,3.20
2015,08,27,00,18,3.20
2015,08,27,00,19,3.20
2015,08,27,00,20,3.20
2015,08,27,00,21,3.20
2015,08,27,00,22,3.20
2015,08,27,00,23,1.60
2015,08,27,00,24,1.60
2015,08,27,00,25,1.60
2015,08,27,00,26,1.60
2015,08,27,00,27,1.60
2015,08,27,00,28,1.60
2015,08,27,00,29,1.60
2015,08,27,00,34,1.60
2015,08,27,00,35,1.60
2015,08,27,00,36,1.60
2015,08,27,00,37,3.20
2015,08,27,00,38,1.60
2015,08,27,00,39,1.60
2015,08,27,00,43,1.60
2015,08,27,00,44,1.60
2015,08,27,00,45,1.60
2015,08,27,00,46,1.60
2015,08,27,00,47,1.60
2015,08,27,00,48,1.60
2015,08,27,00,49,1.60
2015,08,27,00,50,1.60
2015,08,27,00,51,1.60
2015,08,27,00,53,1.60
2015,08,27,00,54,1.60
2015,08,27,00,55,1.60
2015,08,27,00,56,1.60
2015,08,27,00,57,1.60
2015,08,27,00,58,1.60
2015,08,27,00,59,1.60
2015,08,27,01,00,1.60
2015,08,27,01,01,1.60
2015,08,27,01,02,1.60
2015,08,27,01,03,1.60
2015,08,27,01,04,1.60
2015,08,27,01,05,1.60
2015,08,27,01,06,1.60
2015,08,27,01,07,3.20
2015,08,27,01,08,3.20
2015,08,27,01,09,3.20
2015,08,27,01,10,3.20
2015,08,27,01,11,3.20
2015,08,27,01,12,3.20
2015,08,27,01,13,1.60
2015,08,27,01,14,1.60
2015,08,27,01,15,1.60
2015,08,27,01,30,1.60
2015,08,27,01,31,3.20
2015,08,27,01,32,3.20
2015,08,27,01,33,3.20
2015,08,27,01,34,3.20
2015,08,27,01,35,3.20
2015,08,27,01,36,3.20
2015,08,27,01,37,1.60
2015,08,27,01,38,1.60
2015,08,27,01,39,1.60
2015,08,27,01,40,1.60
2015,08,27,01,41,1.60
2015,08,27,01,42,1.60
2015,08,27,01,47,1.60
2015,08,27,01,48,1.60
2015,08,27,01,49,1.60
2015,08,27,01,50,1.60
2015,08,27,01,51,1.60
2015,08,27,01,52,1.60
2015,08,27,01,58,3.20
2015,08,27,01,59,3.20
2015,08,27,02,00,1.60
2015,08,27,02,01,1.60
2015,08,27,02,02,1.60
2015,08,27,02,03,1.60
2015,08,27,02,04,1.60
2015,08,27,02,05,1.60
2015,08,27,02,06,1.60
2015,08,27,02,07,1.60
2015,08,27,02,14,1.60
2015,08,27,02,15,1.60
2015,08,27,02,16,3.20
2015,08,27,02,17,3.20
2015,08,27,02,18,1.60
2015,08,27,02,19,1.60
2015,08,27,02,23,1.60
2015,08,27,02,24,1.60
2015,08,27,02,25,1.60
2015,08,27,02,26,1.60
2015,08,27,02,27,1.60
2015,08,27,02,28,1.60
2015,08,27,02,36,1.60
2015,08,27,02,37,1.60
2015,08,27,02,38,1.60
2015,08,27,02,39,1.60
2015,08,27,02,40,1.60
2015,08,27,02,41,1.60
2015,08,27,02,42,1.60
2015,08,27,02,43,1.60
2015,08,27,02,44,1.60
2015,08,27,02,48,1.60
2015,08,27,02,49,1.60
2015,08,27,02,50,1.60
2015,08,27,02,51,1.60
2015,08,27,02,53,1.60
2015,08,27,02,55,1.60
2015,08,27,02,58,1.60
2015,08,27,02,59,1.60
2015,08,27,03,00,1.60
2015,08,27,03,05,1.60
2015,08,27,03,06,1.60
2015,08,27,03,07,1.60
2015,08,27,03,08,1.60
2015,08,27,03,12,1.60
2015,08,27,03,13,3.20
2015,08,27,03,14,1.60
2015,08,27,03,15,1.60
2015,08,27,03,16,1.60
2015,08,27,03,19,1.60
2015,08,27,03,24,1.60
2015,08,27,03,25,1.60
2015,08,27,03,26,1.60
2015,08,27,03,32,1.60
2015,08,27,03,33,3.20
2015,08,27,03,34,3.20
2015,08,27,03,35,3.20
2015,08,27,03,36,3.20
2015,08,27,03,37,3.20
2015,08,27,03,38,3.20
2015,08,27,03,39,3.20
2015,08,27,03,40,3.20
2015,08,27,03,41,3.20
2015,08,27,03,42,3.20
2015,08,27,03,43,3.20
2015,08,27,03,44,1.60
2015,08,27,03,45,1.60
2015,08,27,03,52,1.60
2015,08,27,03,53,3.20
2015,08,27,03,54,3.20
2015,08,27,03,55,1.60
2015,08,27,03,56,1.60
2015,08,27,03,58,1.60
2015,08,27,03,59,1.60
2015,08,27,04,00,1.60
2015,08,27,04,01,1.60
2015,08,27,04,02,1.60
2015,08,27,04,03,3.20
2015,08,27,04,04,3.20
2015,08,27,04,05,3.20
2015,08,27,04,06,4.80
2015,08,27,04,07,4.80
2015,08,27,04,08,3.20
2015,08,27,04,09,3.20
2015,08,27,04,10,1.60
2015,08,27,04,12,1.60
2015,08,27,04,13,1.60
2015,08,27,04,14,1.60
2015,08,27,04,20,1.60
2015,08,27,04,21,3.20
2015,08,27,04,22,3.20
2015,08,27,04,23,3.20
2015,08,27,04,24,3.20
2015,08,27,04,25,3.20
2015,08,27,04,26,1.60
2015,08,27,04,27,1.60
2015,08,27,04,47,1.60
2015,08,27,04,48,1.60
2015,08,27,04,49,1.60
2015,08,27,04,50,1.60
2015,08,27,04,51,1.60
2015,08,27,04,52,3.20
2015,08,27,04,53,3.20
2015,08,27,04,54,3.20
2015,08,27,04,55,3.20
2015,08,27,04,56,1.60
2015,08,27,04,57,1.60
2015,08,27,05,02,3.20
2015,08,27,05,03,4.80
2015,08,27,05,04,3.20
2015,08,27,05,05,3.20
2015,08,27,05,06,3.20
2015,08,27,05,07,3.20
2015,08,27,05,08,1.60
2015,08,27,05,09,3.20
2015,08,27,05,10,1.60
2015,08,27,05,11,1.60
2015,08,27,05,19,1.60
2015,08,27,05,20,1.60
2015,08,27,05,21,1.60
2015,08,27,05,22,1.60
2015,08,27,05,25,1.60
2015,08,27,05,26,1.60
2015,08,27,05,27,1.60
2015,08,27,05,28,1.60
2015,08,27,05,29,1.60
2015,08,27,05,30,3.20
2015,08,27,05,31,1.60
2015,08,27,05,33,1.60
2015,08,27,05,34,1.60
2015,08,27,05,35,1.60
2015,08,27,05,36,1.60
2015,08,27,05,37,1.60
2015,08,27,05,38,3.20
2015,08,27,05,39,3.20
2015,08,27,05,40,3.20
2015,08,27,05,41,3.20
2015,08,27,05,42,1.60
2015,08,27,05,43,1.60
2015,08,27,05,45,1.60
2015,08,27,05,47,1.60
2015,08,27,05,48,1.60
2015,08,27,05,50,1.60
2015,08,27,05,51,1.60
2015,08,27,05,52,1.60
2015,08,27,06,09,1.60
2015,08,27,06,10,1.60
2015,08,27,06,11,1.60
2015,08,27,06,12,1.60
2015,08,27,06,13,1.60
2015,08,27,06,23,1.60
2015,08,27,06,24,1.60
2015,08,27,06,25,3.20
2015,08,27,06,26,4.80
2015,08,27,06,27,3.20
2015,08,27,06,28,3.20
2015,08,27,06,29,1.60
2015,08,27,06,30,1.60
2015,08,27,06,32,1.60
2015,08,27,06,34,1.60
2015,08,27,06,35,1.60
2015,08,27,06,36,3.20
2015,08,27,06,37,1.60
2015,08,27,06,38,1.60
2015,08,27,06,43,1.60
2015,08,27,06,44,1.60
2015,08,27,06,45,1.60
2015,08,27,06,47,1.60
2015,08,27,06,48,1.60
2015,08,27,06,50,1.60
2015,08,27,06,51,1.60
2015,08,27,06,52,1.60
2015,08,27,06,55,1.60
2015,08,27,06,57,1.60
2015,08,27,06,58,1.60
2015,08,27,06,59,3.20
2015,08,27,07,00,1.60
2015,08,27,07,01,3.20
2015,08,27,07,02,1.60
2015,08,27,07,03,3.20
2015,08,27,07,04,1.60
2015,08,27,07,05,1.60
2015,08,27,07,07,1.60
2015,08,27,07,08,1.60
2015,08,27,07,09,3.20
2015,08,27,07,10,3.20
2015,08,27,07,11,1.60
2015,08,27,07,12,1.60
2015,08,27,07,13,1.60
2015,08,27,07,14,1.60
2015,08,27,07,15,1.60
2015,08,27,07,16,1.60
2015,08,27,07,17,1.60
2015,08,27,07,18,1.60
2015,08,27,07,21,1.60
2015,08,27,07,22,1.60
2015,08,27,07,23,1.60
2015,08,27,07,24,1.60
2015,08,27,07,26,1.60
2015,08,27,07,28,1.60
2015,08,27,07,30,1.60
2015,08,27,07,39,1.60
2015,08,27,07,40,1.60
2015,08,27,07,41,1.60
2015,08,27,07,42,1.60
2015,08,27,07,43,1.60
2015,08,27,07,45,1.60
2015,08,27,07,46,1.60
2015,08,27,07,49,1.60
2015,08,27,07,50,1.60
2015,08,27,07,51,1.60
2015,08,27,07,52,3.20
2015,08,27,07,53,1.60
2015,08,27,07,54,1.60
2015,08,27,07,55,1.60
2015,08,27,07,56,1.60
2015,08,27,07,57,1.60
2015,08,27,07,58,1.60
2015,08,27,07,59,1.60
2015,08,27,08,00,3.20
2015,08,27,08,01,3.20
2015,08,27,08,02,3.20
2015,08,27,08,04,1.60
2015,08,27,08,05,3.20
2015,08,27,08,06,1.60
2015,08,27,08,07,3.20
2015,08,27,08,08,4.80
2015,08,27,08,09,1.60
2015,08,27,08,10,1.60
2015,08,27,08,11,1.60
2015,08,27,08,12,1.60
2015,08,27,08,14,3.20
2015,08,27,08,15,3.20
2015,08,27,08,16,1.60
2015,08,27,08,17,1.60
2015,08,27,08,18,3.20
2015,08,27,08,19,3.20
2015,08,27,08,20,1.60
2015,08,27,08,21,3.20
2015,08,27,08,22,1.60
2015,08,27,08,23,3.20
2015,08,27,08,24,3.20
2015,08,27,08,25,1.60
2015,08,27,08,30,1.60
2015,08,27,08,31,1.60
2015,08,27,08,32,1.60
2015,08,27,08,33,1.60
2015,08,27,08,34,1.60
2015,08,27,08,35,1.60
2015,08,27,08,36,1.60
2015,08,27,08,40,1.60
2015,08,27,08,41,1.60
2015,08,27,08,43,3.20
2015,08,27,08,44,3.20
2015,08,27,08,45,1.60
2015,08,27,08,46,1.60
2015,08,27,08,47,1.60
2015,08,27,08,48,1.60
2015,08,27,08,49,1.60
2015,08,27,08,50,1.60
2015,08,27,08,54,3.20
2015,08,27,08,55,3.20
2015,08,27,08,56,1.60
2015,08,27,08,57,3.20
2015,08,27,08,58,1.60
2015,08,27,08,59,3.20
2015,08,27,09,00,3.20
2015,08,27,09,01,3.20
2015,08,27,09,02,3.20
2015,08,27,09,03,3.20
2015,08,27,09,04,3.20
2015,08,27,09,05,3.20
2015,08,27,09,06,3.20
2015,08,27,09,07,1.60
2015,08,27,09,08,4.80
2015,08,27,09,09,3.20
2015,08,27,09,10,1.60
2015,08,27,09,11,1.60
2015,08,27,09,13,1.60
2015,08,27,09,14,3.20
2015,08,27,09,15,1.60
2015,08,27,09,16,1.60
2015,08,27,09,17,3.20
2015,08,27,09,18,3.20
2015,08,27,09,19,1.60
2015,08,27,09,20,3.20
2015,08,27,09,21,3.20
2015,08,27,09,22,3.20
2015,08,27,09,23,3.20
2015,08,27,09,24,1.60
2015,08,27,09,25,1.60
2015,08,27,09,26,4.80
2015,08,27,09,27,6.40
2015,08,27,09,28,6.40
2015,08,27,09,29,1.60
2015,08,27,09,30,3.20
2015,08,27,09,31,4.80
2015,08,27,09,32,3.20
2015,08,27,09,33,3.20
2015,08,27,09,34,1.60
2015,08,27,09,35,1.60
2015,08,27,09,36,1.60
2015,08,27,09,37,1.60
2015,08,27,09,38,3.20
2015,08,27,09,39,3.20
2015,08,27,09,40,3.20
2015,08,27,09,41,3.20
2015,08,27,09,42,1.60
2015,08,27,09,43,3.20
2015,08,27,09,44,1.60
2015,08,27,09,45,1.60
2015,08,27,09,46,3.20
2015,08,27,09,47,4.80
2015,08,27,09,48,4.80
2015,08,27,09,49,3.20
2015,08,27,09,50,4.80
2015,08,27,09,51,1.60
2015,08,27,09,52,6.40
2015,08,27,09,53,8.10
2015,08,27,09,54,8.10
2015,08,27,09,55,3.20
2015,08,27,09,56,4.80
2015,08,27,09,57,3.20
2015,08,27,09,58,4.80
2015,08,27,09,59,8.10
2015,08,27,10,00,8.10
2015,08,27,10,01,6.40
2015,08,27,10,02,4.80
2015,08,27,10,03,4.80
2015,08,27,10,04,6.40
2015,08,27,10,05,6.40
2015,08,27,10,06,3.20
2015,08,27,10,07,3.20
2015,08,27,10,08,4.80
2015,08,27,10,09,6.40
2015,08,27,10,10,4.80
2015,08,27,10,11,6.40
2015,08,27,10,12,3.20
2015,08,27,10,13,3.20
2015,08,27,10,14,3.20
2015,08,27,10,15,4.80
2015,08,27,10,16,4.80
2015,08,27,10,17,3.20
2015,08,27,10,18,4.80
2015,08,27,10,19,6.40
2015,08,27,10,20,4.80
2015,08,27,10,21,4.80
2015,08,27,10,22,4.80
2015,08,27,10,23,3.20
2015,08,27,10,24,4.80
2015,08,27,10,25,4.80
2015,08,27,10,26,4.80
2015,08,27,10,27,4.80
2015,08,27,10,28,4.80
2015,08,27,10,29,4.80
2015,08,27,10,30,4.80
2015,08,27,10,31,4.80
2015,08,27,10,32,4.80
2015,08,27,10,33,1.60
2015,08,27,10,34,1.60
2015,08,27,10,35,3.20
2015,08,27,10,36,1.60
2015,08,27,10,37,1.60
2015,08,27,10,38,3.20
2015,08,27,10,39,1.60
2015,08,27,10,40,3.20
2015,08,27,10,41,3.20
2015,08,27,10,42,3.20
2015,08,27,10,43,6.40
2015,08,27,10,44,4.80
2015,08,27,10,45,3.20
2015,08,27,10,46,1.60
2015,08,27,10,47,3.20
2015,08,27,10,48,4.80
2015,08,27,10,49,4.80
2015,08,27,10,50,3.20
2015,08,27,10,51,3.20
2015,08,27,10,52,3.20
2015,08,27,10,53,3.20
2015,08,27,10,54,1.60
2015,08,27,10,55,1.60
2015,08,27,10,56,3.20
2015,08,27,10,57,3.20
2015,08,27,10,58,1.60
2015,08,27,10,59,3.20
2015,08,27,11,00,3.20
2015,08,27,11,01,1.60
2015,08,27,11,02,3.20
2015,08,27,11,03,3.20
2015,08,27,11,04,3.20
2015,08,27,11,05,3.20
2015,08,27,11,06,3.20
2015,08,27,11,07,4.80
2015,08,27,11,08,3.20
2015,08,27,11,09,6.40
2015,08,27,11,10,6.40
2015,08,27,11,11,6.40
2015,08,27,11,12,4.80
2015,08,27,11,13,3.20
2015,08,27,11,14,3.20
2015,08,27,11,15,1.60
2015,08,27,11,16,3.20
2015,08,27,11,17,4.80
2015,08,27,11,18,3.20
2015,08,27,11,19,4.80
2015,08,27,11,20,6.40
2015,08,27,11,21,1.60
2015,08,27,11,22,6.40
2015,08,27,11,23,3.20
2015,08,27,11,24,3.20
2015,08,27,11,25,3.20
2015,08,27,11,26,3.20
2015,08,27,11,27,3.20
2015,08,27,11,28,3.20
2015,08,27,11,29,1.60
2015,08,27,11,30,3.20
2015,08,27,11,31,4.80
2015,08,27,11,32,3.20
2015,08,27,11,33,3.20
2015,08,27,11,34,3.20
2015,08,27,11,35,8.10
2015,08,27,11,36,4.80
2015,08,27,11,37,3.20
2015,08,27,11,38,3.20
2015,08,27,11,39,3.20
2015,08,27,11,40,3.20
2015,08,27,11,41,3.20
2015,08,27,11,42,4.80
2015,08,27,11,43,4.80
2015,08,27,11,44,6.40
2015,08,27,11,45,6.40
2015,08,27,11,46,4.80
2015,08,27,11,47,3.20
2015,08,27,11,48,3.20
2015,08,27,11,49,4.80
2015,08,27,11,50,3.20
2015,08,27,11,51,1.60
2015,08,27,11,52,4.80
2015,08,27,11,53,4.80
2015,08,27,11,54,4.80
2015,08,27,11,55,4.80
2015,08,27,11,56,3.20
2015,08,27,11,57,3.20
2015,08,27,11,58,4.80
2015,08,27,11,59,4.80
2015,08,27,12,00,1.60
2015,08,27,12,01,3.20
2015,08,27,12,02,4.80
2015,08,27,12,03,1.60
2015,08,27,12,04,3.20
2015,08,27,12,05,4.80
2015,08,27,12,06,3.20
2015,08,27,12,07,6.40
2015,08,27,12,08,4.80
2015,08,27,12,09,4.80
2015,08,27,12,10,3.20
2015,08,27,12,11,3.20
2015,08,27,12,12,6.40
2015,08,27,12,13,6.40
2015,08,27,12,14,4.80
2015,08,27,12,15,9.60
2015,08,27,12,16,4.80
2015,08,27,12,17,4.80
2015,08,27,12,18,3.20
2015,08,27,12,19,3.20
2015,08,27,12,20,3.20
2015,08,27,12,21,4.80
2015,08,27,12,22,4.80
2015,08,27,12,23,3.20
2015,08,27,12,24,3.20
2015,08,27,12,25,3.20
2015,08,27,12,26,3.20
2015,08,27,12,27,3.20
2015,08,27,12,28,4.80
2015,08,27,12,29,4.80
2015,08,27,12,30,3.20
2015,08,27,12,31,8.10
2015,08,27,12,32,4.80
2015,08,27,12,33,4.80
2015,08,27,12,34,1.60
2015,08,27,12,35,3.20
2015,08,27,12,36,3.20
2015,08,27,12,37,3.20
2015,08,27,12,38,4.80
2015,08,27,12,39,6.40
2015,08,27,12,40,3.20
2015,08,27,12,41,3.20
2015,08,27,12,42,3.20
2015,08,27,12,43,4.80
2015,08,27,12,44,4.80
2015,08,27,12,45,4.80
2015,08,27,12,46,3.20
2015,08,27,12,47,4.80
2015,08,27,12,48,4.80
2015,08,27,12,49,3.20
2015,08,27,12,50,3.20
2015,08,27,12,51,4.80
2015,08,27,12,52,6.40
2015,08,27,12,53,8.10
2015,08,27,12,54,4.80
2015,08,27,12,55,3.20
2015,08,27,12,56,6.40
2015,08,27,12,57,3.20
2015,08,27,12,58,4.80
2015,08,27,12,59,6.40
2015,08,27,13,00,3.20
2015,08,27,13,01,3.20
2015,08,27,13,02,3.20
2015,08,27,13,03,3.20
2015,08,27,13,04,4.80
2015,08,27,13,05,3.20
2015,08,27,13,06,4.80
2015,08,27,13,07,8.10
2015,08,27,13,08,12.90
2015,08,27,13,09,6.40
2015,08,27,13,10,3.20
2015,08,27,13,11,3.20
2015,08,27,13,12,3.20
2015,08,27,13,13,3.20
2015,08,27,13,14,3.20
2015,08,27,13,15,6.40
2015,08,27,13,16,3.20
2015,08,27,13,17,4.80
2015,08,27,13,18,6.40
2015,08,27,13,19,6.40
2015,08,27,13,20,6.40
2015,08,27,13,21,8.10
2015,08,27,13,22,6.40
2015,08,27,13,23,4.80
2015,08,27,13,24,3.20
2015,08,27,13,25,8.10
2015,08,27,13,26,6.40
2015,08,27,13,27,4.80
2015,08,27,13,28,4.80
2015,08,27,13,29,3.20
2015,08,27,13,30,3.20
2015,08,27,13,31,4.80
2015,08,27,13,32,3.20
2015,08,27,13,33,4.80
2015,08,27,13,34,6.40
2015,08,27,13,35,6.40
2015,08,27,13,36,4.80
2015,08,27,13,37,9.60
2015,08,27,13,38,9.60
2015,08,27,13,39,6.40
2015,08,27,13,40,4.80
2015,08,27,13,41,8.10
2015,08,27,13,42,8.10
2015,08,27,13,43,3.20
2015,08,27,13,44,3.20
2015,08,27,13,45,4.80
2015,08,27,13,46,6.40
2015,08,27,13,47,8.10
2015,08,27,13,48,3.20
2015,08,27,13,49,4.80
2015,08,27,13,50,4.80
2015,08,27,13,51,6.40
2015,08,27,13,52,8.10
2015,08,27,13,53,9.60
2015,08,27,13,54,6.40
2015,08,27,13,55,11.30
2015,08,27,13,56,6.40
2015,08,27,13,57,8.10
2015,08,27,13,58,6.40
2015,08,27,13,59,12.90
2015,08,27,14,00,11.30
2015,08,27,14,01,4.80
2015,08,27,14,02,6.40
2015,08,27,14,03,4.80
2015,08,27,14,04,6.40
2015,08,27,14,05,3.20
2015,08,27,14,06,8.10
2015,08,27,14,07,4.80
2015,08,27,14,08,6.40
2015,08,27,14,09,4.80
2015,08,27,14,10,6.40
2015,08,27,14,11,6.40
2015,08,27,14,12,8.10
2015,08,27,14,13,8.10
2015,08,27,14,14,6.40
2015,08,27,14,15,6.40
2015,08,27,14,16,4.80
2015,08,27,14,17,6.40
2015,08,27,14,18,4.80
2015,08,27,14,19,6.40
2015,08,27,14,20,6.40
2015,08,27,14,21,12.90
2015,08,27,14,22,8.10
2015,08,27,14,23,8.10
2015,08,27,14,24,12.90
2015,08,27,14,25,12.90
2015,08,27,14,26,12.90
2015,08,27,14,27,9.60
2015,08,27,14,28,11.30
2015,08,27,14,29,12.90
2015,08,27,14,30,9.60
2015,08,27,14,31,14.50
2015,08,27,14,32,19.30
2015,08,27,14,33,9.60
2015,08,27,14,34,6.40
2015,08,27,14,35,6.40
2015,08,27,14,36,6.40
2015,08,27,14,37,9.60
2015,08,27,14,38,12.90
2015,08,27,14,39,4.80
2015,08,27,14,40,4.80
2015,08,27,14,41,4.80
2015,08,27,14,42,8.10
2015,08,27,14,43,6.40
2015,08,27,14,44,6.40
2015,08,27,14,45,6.40
2015,08,27,14,46,16.10
2015,08,27,14,47,8.10
2015,08,27,14,48,12.90
2015,08,27,14,49,8.10
2015,08,27,14,50,8.10
2015,08,27,14,51,11.30
2015,08,27,14,52,6.40
2015,08,27,14,53,11.30
2015,08,27,14,54,14.50
2015,08,27,14,55,8.10
2015,08,27,14,56,14.50
2015,08,27,14,57,11.30
2015,08,27,14,58,16.10
2015,08,27,14,59,9.60
2015,08,27,15,00,12.90
2015,08,27,15,01,12.90
2015,08,27,15,02,9.60
2015,08,27,15,03,11.30
2015,08,27,15,04,11.30
2015,08,27,15,05,9.60
2015,08,27,15,06,14.50
2015,08,27,15,07,9.60
2015,08,27,15,08,9.60
2015,08,27,15,09,9.60
2015,08,27,15,10,6.40
2015,08,27,15,11,8.10
2015,08,27,15,12,4.80
2015,08,27,15,13,4.80
2015,08,27,15,14,11.30
2015,08,27,15,15,8.10
2015,08,27,15,16,12.90
2015,08,27,15,17,8.10
2015,08,27,15,18,14.50
2015,08,27,15,19,8.10
2015,08,27,15,20,4.80
2015,08,27,15,21,3.20
2015,08,27,15,22,8.10
2015,08,27,15,23,3.20
2015,08,27,15,24,6.40
2015,08,27,15,25,4.80
2015,08,27,15,26,6.40
2015,08,27,15,27,11.30
2015,08,27,15,28,8.10
2015,08,27,15,29,11.30
2015,08,27,15,30,8.10
2015,08,27,15,31,11.30
2015,08,27,15,32,11.30
2015,08,27,15,33,6.40
2015,08,27,15,34,14.50
2015,08,27,15,35,19.30
2015,08,27,15,36,4.80
2015,08,27,15,37,11.30
2015,08,27,15,38,6.40
2015,08,27,15,39,6.40
2015,08,27,15,40,4.80
2015,08,27,15,41,4.80
2015,08,27,15,42,6.40
2015,08,27,15,43,6.40
2015,08,27,15,44,6.40
2015,08,27,15,45,6.40
2015,08,27,15,46,4.80
2015,08,27,15,47,4.80
2015,08,27,15,48,4.80
2015,08,27,15,49,4.80
2015,08,27,15,50,11.30
2015,08,27,15,51,12.90
2015,08,27,15,52,9.60
2015,08,27,15,53,8.10
2015,08,27,15,54,8.10
2015,08,27,15,55,14.50
2015,08,27,15,56,8.10
2015,08,27,15,57,4.80
2015,08,27,15,58,3.20
2015,08,27,15,59,11.30
2015,08,27,16,00,4.80
2015,08,27,16,01,6.40
2015,08,27,16,02,11.30
2015,08,27,16,03,8.10
2015,08,27,16,04,11.30
2015,08,27,16,05,16.10
2015,08,27,16,06,6.40
2015,08,27,16,07,6.40
2015,08,27,16,08,9.60
2015,08,27,16,09,6.40
2015,08,27,16,10,8.10
2015,08,27,16,11,6.40
2015,08,27,16,12,12.90
2015,08,27,16,13,8.10
2015,08,27,16,14,11.30
2015,08,27,16,15,8.10
2015,08,27,16,16,8.10
2015,08,27,16,17,9.60
2015,08,27,16,18,4.80
2015,08,27,16,19,9.60
2015,08,27,16,20,6.40
2015,08,27,16,21,8.10
2015,08,27,16,22,4.80
2015,08,27,16,23,4.80
2015,08,27,16,24,6.40
2015,08,27,16,25,4.80
2015,08,27,16,26,8.10
2015,08,27,16,27,4.80
2015,08,27,16,28,4.80
2015,08,27,16,29,4.80
2015,08,27,16,30,4.80
2015,08,27,16,31,4.80
2015,08,27,16,32,8.10
2015,08,27,16,33,9.60
2015,08,27,16,34,4.80
2015,08,27,16,35,12.90
2015,08,27,16,36,8.10
2015,08,27,16,37,11.30
2015,08,27,16,38,8.10
2015,08,27,16,39,4.80
2015,08,27,16,40,6.40
2015,08,27,16,41,6.40
2015,08,27,16,42,9.60
2015,08,27,16,43,6.40
2015,08,27,16,44,3.20
2015,08,27,16,45,8.10
2015,08,27,16,46,8.10
2015,08,27,16,47,8.10
2015,08,27,16,48,8.10
2015,08,27,16,49,14.50
2015,08,27,16,50,11.30
2015,08,27,16,51,11.30
2015,08,27,16,52,4.80
2015,08,27,16,53,8.10
2015,08,27,16,54,12.90
2015,08,27,16,55,11.30
2015,08,27,16,56,8.10
2015,08,27,16,57,4.80
2015,08,27,16,58,4.80
2015,08,27,16,59,3.20
2015,08,27,17,00,3.20
2015,08,27,17,01,9.60
2015,08,27,17,02,3.20
2015,08,27,17,03,3.20
2015,08,27,17,04,3.20
2015,08,27,17,05,6.40
2015,08,27,17,06,3.20
2015,08,27,17,07,4.80
2015,08,27,17,08,12.90
2015,08,27,17,09,6.40
2015,08,27,17,10,6.40
2015,08,27,17,11,4.80
2015,08,27,17,12,3.20
2015,08,27,17,13,6.40
2015,08,27,17,14,6.40
2015,08,27,17,15,3.20
2015,08,27,17,16,6.40
2015,08,27,17,17,3.20
2015,08,27,17,18,3.20
2015,08,27,17,19,4.80
2015,08,27,17,20,3.20
2015,08,27,17,21,3.20
2015,08,27,17,22,3.20
2015,08,27,17,23,3.20
2015,08,27,17,24,1.60
2015,08,27,17,25,3.20
2015,08,27,17,26,3.20
2015,08,27,17,27,4.80
2015,08,27,17,28,4.80
2015,08,27,17,29,3.20
2015,08,27,17,30,3.20
2015,08,27,17,31,4.80
2015,08,27,17,32,3.20
2015,08,27,17,33,3.20
2015,08,27,17,34,4.80
2015,08,27,17,35,3.20
2015,08,27,17,36,3.20
2015,08,27,17,37,3.20
2015,08,27,17,38,4.80
2015,08,27,17,39,3.20
2015,08,27,17,40,4.80
2015,08,27,17,41,1.60
2015,08,27,17,42,3.20
2015,08,27,17,43,3.20
2015,08,27,17,44,6.40
2015,08,27,17,45,4.80
2015,08,27,17,46,4.80
2015,08,27,17,47,3.20
2015,08,27,17,48,3.20
2015,08,27,17,49,3.20
2015,08,27,17,50,3.20
2015,08,27,17,51,1.60
2015,08,27,17,52,3.20
2015,08,27,17,53,3.20
2015,08,27,17,54,3.20
2015,08,27,17,55,1.60
2015,08,27,17,56,1.60
2015,08,27,17,57,1.60
2015,08,27,17,58,1.60
2015,08,27,17,59,1.60
2015,08,27,18,00,1.60
2015,08,27,18,01,3.20
2015,08,27,18,02,3.20
2015,08,27,18,03,3.20
2015,08,27,18,04,3.20
2015,08,27,18,05,1.60
2015,08,27,18,06,3.20
2015,08,27,18,07,3.20
2015,08,27,18,08,3.20
2015,08,27,18,09,3.20
2015,08,27,18,10,4.80
2015,08,27,18,11,8.10
2015,08,27,18,12,4.80
2015,08,27,18,13,1.60
2015,08,27,18,14,3.20
2015,08,27,18,15,3.20
2015,08,27,18,16,3.20
2015,08,27,18,17,3.20
2015,08,27,18,18,3.20
2015,08,27,18,19,3.20
2015,08,27,18,20,4.80
2015,08,27,18,21,1.60
2015,08,27,18,22,6.40
2015,08,27,18,23,4.80
2015,08,27,18,24,3.20
2015,08,27,18,25,3.20
2015,08,27,18,26,6.40
2015,08,27,18,27,4.80
2015,08,27,18,28,4.80
2015,08,27,18,29,4.80
2015,08,27,18,30,4.80
2015,08,27,18,31,3.20
2015,08,27,18,32,3.20
2015,08,27,18,33,4.80
2015,08,27,18,34,6.40
2015,08,27,18,35,3.20
2015,08,27,18,36,3.20
2015,08,27,18,37,3.20
2015,08,27,18,38,3.20
2015,08,27,18,39,3.20
2015,08,27,18,40,3.20
2015,08,27,18,41,4.80
2015,08,27,18,42,3.20
2015,08,27,18,43,3.20
2015,08,27,18,44,4.80
2015,08,27,18,45,3.20
2015,08,27,18,46,4.80
2015,08,27,18,47,4.80
2015,08,27,18,48,3.20
2015,08,27,18,49,4.80
2015,08,27,18,50,4.80
2015,08,27,18,51,4.80
2015,08,27,18,52,4.80
2015,08,27,18,53,3.20
2015,08,27,18,54,4.80
2015,08,27,18,55,3.20
2015,08,27,18,56,1.60
2015,08,27,18,57,8.10
2015,08,27,18,58,4.80
2015,08,27,18,59,6.40
2015,08,27,19,00,3.20
2015,08,27,19,01,3.20
2015,08,27,19,02,1.60
2015,08,27,19,03,4.80
2015,08,27,19,04,3.20
2015,08,27,19,05,4.80
2015,08,27,19,06,4.80
2015,08,27,19,07,3.20
2015,08,27,19,08,4.80
2015,08,27,19,09,3.20
2015,08,27,19,10,4.80
2015,08,27,19,11,3.20
2015,08,27,19,12,4.80
2015,08,27,19,13,3.20
2015,08,27,19,14,4.80
2015,08,27,19,15,3.20
2015,08,27,19,16,3.20
2015,08,27,19,17,3.20
2015,08,27,19,18,1.60
2015,08,27,19,19,3.20
2015,08,27,19,20,3.20
2015,08,27,19,21,3.20
2015,08,27,19,22,4.80
2015,08,27,19,23,4.80
2015,08,27,19,24,3.20
2015,08,27,19,25,3.20
2015,08,27,19,26,3.20
2015,08,27,19,27,3.20
2015,08,27,19,28,4.80
2015,08,27,19,29,4.80
2015,08,27,19,30,4.80
2015,08,27,19,31,4.80
2015,08,27,19,32,4.80
2015,08,27,19,33,3.20
2015,08,27,19,34,3.20
2015,08,27,19,35,6.40
2015,08,27,19,36,4.80
2015,08,27,19,37,4.80
2015,08,27,19,38,3.20
2015,08,27,19,39,4.80
2015,08,27,19,40,4.80
2015,08,27,19,41,3.20
2015,08,27,19,42,1.60
2015,08,27,19,43,3.20
2015,08,27,19,44,1.60
2015,08,27,19,45,3.20
2015,08,27,19,46,1.60
2015,08,27,19,47,1.60
2015,08,27,19,48,1.60
2015,08,27,19,49,3.20
2015,08,27,19,50,4.80
2015,08,27,19,51,4.80
2015,08,27,19,52,1.60
2015,08,27,19,53,3.20
2015,08,27,19,54,4.80
2015,08,27,19,55,3.20
2015,08,27,19,56,3.20
2015,08,27,19,57,3.20
2015,08,27,19,58,6.40
2015,08,27,19,59,3.20
2015,08,27,20,00,3.20
2015,08,27,20,01,1.60
2015,08,27,20,02,3.20
2015,08,27,20,03,3.20
2015,08,27,20,04,1.60
2015,08,27,20,05,3.20
2015,08,27,20,06,4.80
2015,08,27,20,07,4.80
2015,08,27,20,08,3.20
2015,08,27,20,09,3.20
2015,08,27,20,10,4.80
2015,08,27,20,11,1.60
2015,08,27,20,12,1.60
2015,08,27,20,13,4.80
2015,08,27,20,14,4.80
2015,08,27,20,15,4.80
2015,08,27,20,16,3.20
2015,08,27,20,17,1.60
2015,08,27,20,18,4.80
2015,08,27,20,19,4.80
2015,08,27,20,20,3.20
2015,08,27,20,21,3.20
2015,08,27,20,22,4.80
2015,08,27,20,23,3.20
2015,08,27,20,24,4.80
2015,08,27,20,25,4.80
2015,08,27,20,26,3.20
2015,08,27,20,27,3.20
2015,08,27,20,28,4.80
2015,08,27,20,29,4.80
2015,08,27,20,30,3.20
2015,08,27,20,31,3.20
2015,08,27,20,32,3.20
2015,08,27,20,33,3.20
2015,08,27,20,34,3.20
2015,08,27,20,35,4.80
2015,08,27,20,36,3.20
2015,08,27,20,37,1.60
2015,08,27,20,38,3.20
2015,08,27,20,39,1.60
2015,08,27,20,40,3.20
2015,08,27,20,41,4.80
2015,08,27,20,42,3.20
2015,08,27,20,43,1.60
2015,08,27,20,44,1.60
2015,08,27,20,45,1.60
2015,08,27,20,46,1.60
2015,08,27,20,47,1.60
2015,08,27,20,48,3.20
2015,08,27,20,49,1.60
2015,08,27,20,51,3.20
2015,08,27,20,52,4.80
2015,08,27,20,53,1.60
2015,08,27,20,55,3.20
2015,08,27,20,56,3.20
2015,08,27,20,57,1.60
2015,08,27,20,58,3.20
2015,08,27,20,59,1.60
2015,08,27,21,00,3.20
2015,08,27,21,01,3.20
2015,08,27,21,02,3.20
2015,08,27,21,03,3.20
2015,08,27,21,04,1.60
2015,08,27,21,07,1.60
2015,08,27,21,08,3.20
2015,08,27,21,09,3.20
2015,08,27,21,10,3.20
2015,08,27,21,11,3.20
2015,08,27,21,13,3.20
2015,08,27,21,14,3.20
2015,08,27,21,15,1.60
2015,08,27,21,16,1.60
2015,08,27,21,17,1.60
2015,08,27,21,18,1.60
2015,08,27,21,19,3.20
2015,08,27,21,20,3.20
2015,08,27,21,21,3.20
2015,08,27,21,22,3.20